Location: *
(32.8667°N, 13.1833°E)
Time: 13:03:33
(UTC+00:00)

Tiangong 2 - Pass Details

Date: 18 July 2019
Orbit: 185 x 376 km, 42.8° (Epoch: 19 July)

Event Time Altitude Azimuth Distance (km) Brightness Sun altitude
Rises 20:05:33 0° 307° (NW) 2,234 6.5 -19.9°
Reaches altitude 10° 20:07:58 10° 324° (NW) 1,376 5.0 -20.3°
Maximum altitude 20:10:25 21° 17° (NNE) 895 3.2 -20.7°
Enters shadow 20:10:53 20° 30° (NNE) 913 3.1 -20.7°
